GW5931 Weather Reports


time (UTC)temp
F
wind
direction
speed
knots
gust
knots
rain 1hr
in
rain 24hr
in
rain mn
in
humidity
%
barometer
mb
20260507104522 39 271 0.0 0.0 0.00 0.30 0.00 95 1010.4
20260507103019 39 271 0.0 0.0 0.00 0.30 0.00 95 1010.5
20260507101523 38 271 0.0 0.0 0.00 0.30 0.00 95 1010.5
20260507100029 38 271 0.0 0.0 0.00 0.30 0.00 95 1010.4
20260507094511 38 271 0.0 0.0 0.00 0.36 0.00 95 1010.3
20260507093013 38 271 0.0 0.0 0.00 0.36 0.00 95 1010.3
20260507091511 38 271 0.0 0.0 0.00 0.36 0.00 95 1010.4
20260507090008 38 271 0.0 0.0 0.00 0.36 0.00 94 1010.4
20260507084516 38 271 0.0 0.0 0.00 0.41 0.00 94 1010.3
20260507083018 38 271 0.9 2.6 0.00 0.41 0.00 95 1010.0
20260507081505 37 271 0.0 0.0 0.00 0.41 0.00 94 1010.5
20260507080004 37 271 0.0 0.9 0.00 0.41 0.00 94 1010.4
20260507074501 37 271 0.0 0.9 0.00 0.50 0.00 93 1010.2
20260507073108 38 271 0.9 1.7 0.00 0.50 0.00 93 1010.2
20260507071557 38 271 0.0 0.9 0.00 0.50 0.00 93 1010.4
20260507070104 39 271 0.0 0.0 0.00 0.50 0.00 92 1010.5
20260507064550 40 271 0.0 0.0 0.00 0.60 0.00 92 1010.7
20260507063053 40 271 0.0 0.0 0.00 0.60 0.00 92 1010.6
20260507061545 41 271 0.0 0.0 0.00 0.60 0.00 91 1010.6
20260507060014 41 271 0.0 1.7 0.00 0.60 0.00 91 1010.5
20260507054512 41 271 0.0 1.7 0.00 0.71 0.00 91 1010.6
20260507053009 42 271 0.9 3.5 0.00 0.71 0.00 91 1010.8
20260507051506 42 248 2.6 3.5 0.00 0.71 0.00 93 1010.9
20260507050013 42 266 0.0 3.5 0.00 0.71 0.00 93 1011.0
20260507044504 42 285 1.7 4.3 0.00 0.79 0.00 93 1011.2
20260507043100 42 247 0.9 2.6 0.00 0.79 0.00 93 1011.1
20260507041601 42 247 0.9 1.7 0.00 0.79 0.00 93 1010.9
20260507040103 42 248 1.7 3.5 0.00 0.79 0.00 93 1010.8
20260507034559 42 265 1.7 3.5 0.00 0.87 0.79 93 1010.7
20260507033054 42 263 2.6 5.2 0.00 0.87 0.79 94 1010.7
20260507031555 42 261 0.9 3.5 0.00 0.87 0.79 94 1010.8
20260507030052 42 278 2.6 6.1 0.00 0.87 0.79 94 1010.7
20260507024552 42 257 1.7 5.2 0.00 0.88 0.79 94 1010.7
20260507023049 43 285 2.6 4.3 0.00 0.88 0.79 94 1010.5
20260507021557 42 250 1.7 4.3 0.00 0.88 0.79 94 1010.7
20260507020047 43 264 1.7 3.5 0.00 0.88 0.79 94 1010.8
20260507014546 42 257 1.7 3.5 0.00 0.91 0.79 94 1010.7
20260507013043 42 251 1.7 3.5 0.00 0.91 0.79 94 1010.4
20260507011545 42 249 1.7 6.1 0.00 0.91 0.79 94 1010.5
20260507010044 42 240 3.5 7.0 0.00 0.91 0.79 94 1010.5
20260507004539 42 279 1.7 6.1 0.00 0.97 0.79 94 1010.2
20260507003035 42 280 5.2 8.7 0.00 0.97 0.79 94 1010.3
20260507001534 42 298 3.5 8.7 0.00 0.97 0.79 93 1010.0
20260507000034 42 314 4.3 7.8 0.02 0.97 0.79 93 1009.9
20260506234527 42 321 4.3 7.8 0.04 1.03 0.79 93 1009.7
20260506233025 43 309 2.6 8.7 0.08 1.03 0.79 93 1009.3
20260506231526 43 341 3.5 9.6 0.10 1.03 0.79 92 1009.4
20260506230019 44 355 6.1 12.2 0.09 1.01 0.77 91 1009.1
20260506224516 46 327 6.1 18.2 0.09 1.03 0.75 89 1008.6
20260506223017 48 134 0.0 2.6 0.05 0.99 0.71 89 1008.1
20260506221513 48 134 0.9 3.5 0.03 0.97 0.69 88 1007.9
20260506220019 48 134 0.9 2.6 0.02 0.96 0.68 86 1007.8
20260506214510 49 134 0.9 3.5 0.00 0.98 0.66 84 1007.7
20260506213008 49 134 0.9 3.5 0.00 0.98 0.66 83 1007.4
20260506211508 49 134 2.6 4.3 0.00 0.98 0.66 83 1007.4
20260506210006 50 201 0.9 4.3 0.00 0.98 0.66 82 1007.5
20260506204505 49 204 0.0 1.7 0.00 0.98 0.66 82 1007.6
20260506203013 49 204 0.9 2.6 0.00 0.98 0.66 83 1007.6
20260506201507 49 204 1.7 2.6 0.00 0.98 0.66 81 1007.7
20260506200002 50 204 0.9 2.6 0.00 0.98 0.66 82 1007.6
20260506194619 49 200 1.7 5.2 0.00 0.98 0.66 84 1007.7
20260506193055 49 151 1.7 2.6 0.00 0.98 0.66 86 1007.5
20260506191552 48 156 1.7 4.3 0.00 0.98 0.66 86 1007.6
20260506190052 48 105 0.0 3.5 0.00 0.98 0.66 87 1007.7
20260506184547 47 36 0.9 2.6 0.00 0.98 0.66 89 1007.9
20260506183100 47 79 1.7 4.3 0.00 0.98 0.66 89 1007.9
20260506181553 46 5 0.9 3.5 0.00 0.98 0.66 89 1007.8
20260506180046 46 15 0.9 3.5 0.00 0.98 0.66 89 1008.0
20260506174542 47 79 1.7 3.5 0.00 0.98 0.66 90 1008.0
20260506173049 46 21 1.7 4.3 0.00 0.98 0.66 90 1007.9
20260506171544 47 342 1.7 3.5 0.00 0.98 0.66 92 1007.6
20260506170044 46 106 0.9 5.2 0.00 0.98 0.66 93 1007.3
20260506164545 46 10 0.9 3.5 0.00 0.98 0.66 94 1007.5
20260506163035 45 97 2.6 4.3 0.00 0.98 0.66 94 1007.3
20260506161539 45 10 1.7 4.3 0.00 0.98 0.66 95 1007.5
20260506160042 45 97 1.7 6.1 0.01 0.98 0.66 95 1007.3
20260506154531 44 98 2.6 7.0 0.01 0.98 0.66 95 1007.2
20260506153027 44 96 1.7 4.3 0.01 0.98 0.66 95 1007.5
20260506151533 44 90 0.9 4.3 0.01 0.98 0.66 95 1007.2
20260506150030 44 101 0.9 6.1 0.00 0.97 0.65 95 1007.1
20260506144521 44 38 1.7 3.5 0.00 0.97 0.65 95 1007.1
20260506143036 44 65 1.7 5.2 0.00 0.97 0.65 95 1007.0
20260506141518 44 26 0.9 3.5 0.01 0.97 0.65 95 1006.8
20260506140017 44 72 0.0 3.5 0.02 0.97 0.65 95 1006.8
20260506134545 44 74 1.7 4.3 0.03 0.97 0.65 96 1006.7
20260506133048 43 98 2.6 7.8 0.03 0.97 0.65 95 1006.7
20260506131542 43 109 3.5 7.8 0.03 0.96 0.64 96 1006.5
20260506130040 43 102 2.6 7.8 0.03 0.95 0.63 95 1006.5
20260506124537 43 101 4.3 8.7 0.04 0.94 0.62 96 1006.3
20260506123036 43 97 2.6 8.7 0.05 0.94 0.62 95 1006.3
20260506121530 43 96 3.5 10.4 0.05 0.93 0.61 95 1006.2
20260506120031 43 90 3.5 7.8 0.05 0.92 0.60 95 1006.4
20260506114538 43 95 4.3 8.7 0.04 0.90 0.57 96 1006.2
20260506113026 43 111 2.6 7.8 0.04 0.89 0.56 96 1006.5
20260506111521 43 90 5.2 8.7 0.04 0.88 0.56 96 1006.1
20260506110021 43 98 5.2 8.7 0.05 0.87 0.55 96 1006.0